www.pogodaiklimat.ru

Погода и климат >> Архив погоды >> Россия >> Мордовия >> Темников


ПОГОДА в Темникове

  • Прогноз погоды в Темникове
  • Монитор погоды в Темникове

АРХИВ ПОГОДЫ в Темникове

Время (UTC), дата Ветер
(напр.,м/с)
 
Видим.   Явления Облачность Т
(С)
Тd
(С)
f
(%)
Тe
(С)
Тes
(С)
Комфортность P
(гПа)
Po
(гПа)
Тmin
(С)
Tmax
(С)
R
(мм)
R24
(мм)
S
(см)
18 14.05 ЮЗ 2-3
{6}
10 км гроза без осадков 9/8 300 м
[Cb calv Ac As]
+19.2 +10.5 57 +21 +21 комфорт 1014.8 998.5
21 14.05 Ю 2-4
{5}
10 км {гроза} 6/3 600 м
[Sc Ac As]
+17.5 +11.0 66 +18 +18 1013.8 997.5
00 15.05 штиль 0
{5}
10 км {гроза} 3/0
[Ac trans Ci fib]
+13.5 +10.4 82 +13 +13 1014.2 997.6
03 15.05 Ю 1-2
{3}
20 км 8/3 600 м
[Sc Ac trans Ci fib]
+15.1 +12.4 84 +16 +16 1014.5 998.0 +11.8
06 15.05 З 1-3
{4}
20 км 9/8 600 м
[Sc Ac trans]
+19.5 +15.4 77 +22 +24 комфорт 1014.9 998.7
09 15.05 З 1-3
{4}
20 км 6/4 1000 м
[Cu hum Ac trans Ci fib]
+22.2 +16.4 70 +26 +35 душно 1014.9 998.8
12 15.05 С 2-4
{7}
4000 м гроза, ливневой дождь 9/6 300 м
[Cb calv Ac trans]
+22.3 +12.5 54 +25 +27 комфорт 1014.6 998.5
15 15.05 СЗ 2-5
{6}
20 км гроза, ливневой дождь 10/8 300 м
[Cb calv Ac trans]
+17.8 +13.9 78 +18 +18 1015.3 999.0 +27.3 0.4
18 15.05 С 1-2
{5}
4000 м дымка {гроза, ливн. осадки} 8/4 300 м
[Cb calv Ac trans Cs]
+15.5 +13.9 90 +16 +16 1015.9 999.5
21 15.05 СЗ 3-4
{5}
4000 м дымка {ливн. осадки} 9/8 300 м
[Cb calv Ac trans Cs]
+14.8 +13.7 93 +14 +14 1016.0 999.5
00 16.05 СЗ 2-3
{5}
1000 м дымка {ливн. осадки} 10/10 300 м
[St]
+13.1 +12.4 96 +12 +12 1015.6 999.0
03 16.05 СЗ 1-2
{5}
4000 м слаб. ливневой дождь 10/10 300 м
[Cb calv]
+13.6 +12.8 95 +14 +14 1015.9 999.4 +13.0 1
06 16.05 СЗ 2-4
{5}
4000 м в посл. час дождь {ливн. осадки} 10/10 300 м
[Frnb]
+15.1 +14.4 96 +15 +15 1016.8 1000.3
09 16.05 СЗ 2-4
{6}
20 км 10/10 300 м
[Frnb]
+16.0 +13.7 86 +16 +16 1017.9 1001.5
12 16.05 С 3-7
{9}
20 км 8/8 300 м
[Cb calv Ci fib]
+19.0 +11.8 63 +20 +22 1018.7 1002.4
15 16.05 СЗ 3-6
{9}
20 км 6/4 300 м
[Cb calv Ci fib]
+18.8 +9.5 55 +20 +20 1018.8 1002.5 +20.3 3
18 16.05 СЗ 2-4
{6}
10 км 3/0
[Ci fib]
+14.2 +4.8 53 +14 +14 1020.6 1004.0
21 16.05 СЗ 3-4
{4}
10 км 6/4 600 м
[Sc Ac trans Ci fib]
+9.4 +3.6 67 +7 +7 1022.0 1005.0
00 17.05 СЗ 2-4
{5}
10 км 4/0
[Ci fib]
+7.7 +1.3 64 +6 +6 1022.6 1005.5
03 17.05 С 2-3
{5}
20 км 3/0
[Ci fib]
+7.4 +2.1 69 +6 +7 1023.7 1006.6 +4.5
06 17.05 СВ 3-5
{7}
20 км ясно +13.7 +0.4 40 +13 +21 1023.9 1007.2
09 17.05 СЗ 3-6
{8}
20 км 4/3 1000 м
[Cu hum Ac trans Ci fib]
+14.8 -0.9 34 +14 +22 1023.2 1006.6
12 17.05 СЗ 3-6
{8}
20 км 3/0
[Ac trans]
+16.2 -0.9 31 +16 +23 1021.9 1005.3
15 17.05 СЗ 3-6
{7}
20 км ясно +16.2 -1.4 30 +16 +18 1020.8 1004.2 +16.9
18 17.05 З 1-2
{6}
10 км ясно +8.5 +1.5 61 +8 +8 1021.0 1004.0
21 17.05 З 2-2
{3}
10 км ясно +5.7 +0.9 71 +3 +3 1020.4 1003.2
00 18.05 З 2-3
{4}
10 км ясно +7.5 -0.5 57 +6 +6 1019.2 1002.2
03 18.05 З 3-5
{6}
20 км ясно +9.5 +0.4 53 +8 +9 1018.6 1001.7 +5.0
06 18.05 СЗ 5-7
{8}
20 км ясно +16.3 +2.9 41 +15 +21 1016.8 1000.4
09 18.05 СЗ 5-11
{12}
20 км 4/4 1000 м
[Cu hum]
+18.9 +1.7 32 +19 +24 1015.5 999.2
12 18.05 СЗ 6-10
{13}
20 км 3/1 1000 м
[Cu hum Ci fib]
+19.6 -0.2 26 +19 +23 1014.9 998.6
15 18.05 СЗ 4-9
{12}
20 км 3/0
[Ci fib]
+19.3 -0.5 26 +19 +21 1013.6 997.4 +20.0
18 18.05 СЗ 2-3
{9}
20 км 3/0
[Ci fib]
+14.5 -3.3 29 +14 +14 1014.4 997.9
21 18.05 З 1-1
{5}
10 км 1/0
[Ci fib]
+5.9 -0.4 64 +5 +5 1015.2 998.1
00 19.05 штиль 0
{3}
10 км 3/0
[Ac trans Ci fib]
+4.7 +0.3 73 +4 +4 1014.7 997.6
03 19.05 СЗ 2-4
{5}
20 км 3/3 600 м
[Cu med, cong]
+7.1 +1.1 66 +5 +6 1015.0 998.0 +3.7
06 19.05 С 3-7
{7}
20 км 3/0
[Ci fib]
+12.5 -0.5 41 +11 +19 1015.4 998.8
09 19.05 СЗ 4-8
{10}
20 км 6/4 1000 м
[Cu hum Ac trans Ci fib]
+14.5 -0.2 36 +14 +19 1015.3 998.8
12 19.05 СЗ 4-10
{11}
20 км 8/5 1000 м
[Cu hum Ac trans Ci fib]
+15.8 -1.4 31 +15 +18 1015.2 998.7
15 19.05 С 3-5
{11}
20 км 8/6 1000 м
[Cu hum Ac trans Ci fib]
+14.7 -1.4 33 +14 +15 1016.0 999.5 +16.4
18 19.05 СВ 2-4
{9}
10 км 1/0
[Ac trans]
+9.6 -1.2 47 +9 +9 1018.5 1001.6
21 19.05 СВ 1-2
{4}
10 км ясно +2.6 -1.6 74 +1 +1 1020.2 1002.9
00 20.05 С 1-1
{3}
10 км ясно -0.3 -1.8 90 -2 -2 1021.4 1003.8
03 20.05 штиль 0
{2}
20 км ясно +2.8 -0.5 79 +2 +4 1022.5 1005.2 -0.8
06 20.05 СЗ 2-6
{5}
20 км 4/3 600 м
[Cu hum Ci fib]
+11.9 -1.7 39 +11 +18 1022.1 1005.3
09 20.05 СЗ 2-5
{8}
20 км 6/6 600 м
[Cu hum]
+14.8 -1.2 33 +15 +21 1021.4 1004.8
12 20.05 СЗ 3-7
{8}
20 км 8/8 600 м
[Cu hum]
+15.7 -1.9 30 +15 +17 1020.4 1003.9
15 20.05 СЗ 4-6
{9}
20 км 5/4 600 м
[Cu hum Ac trans]
+16.9 -1.7 28 +17 +17 1019.6 1003.1 +17.3
18 20.05 штиль 0
{6}
10 км 3/0
[Ci fib]
+7.5 +1.3 65 +7 +7 1020.6 1003.5
21 20.05 В 1-2
{4}
10 км ясно +5.3 +1.0 74 +4 +4 1021.6 1004.4
00 21.05 В 1-2
{3}
10 км 3/0
[Ci fib]
+3.0 -0.2 79 +2 +2 1022.4 1005.1
03 21.05 штиль 0
{3}
20 км 3/0
[Ci fib]
+5.9 +3.0 82 +5 +7 1022.6 1005.4 +0.6
06 21.05 СЗ 1-1
{4}
20 км 8/0
[As trans]
+15.2 +0.9 38 +16 +22 1022.2 1005.6
09 21.05 З 1-5
{6}
20 км 8/5 600 м
[Sc Cs]
+18.4 -1.7 26 +20 +28 1021.4 1005.0
12 21.05 З 2-6
{7}
20 км 8/5 600 м
[Cb calv Ac trans Ci fib]
+19.4 -2.7 22 +20 +24 1020.2 1003.8
15 21.05 ЮЗ 2-3
{6}
20 км 10/6 600 м
[Sc Ac trans]
+18.8 -0.7 27 +19 +20 1019.0 1002.6 +20.4

 

Местоположение метеостанции Темников (Мордовия, Россия): широта 54.63 долгота 43.23 высота над уровнем моря 139 м.

В архиве по умолчанию представлена погода в Темникове за последнюю неделю. Архивные данные за месяц целиком и за предыдущие месяцы, начиная с января 2011 года, Вы можете получить, выбрав интересующий диапазон дат из раскрывающегося списка и нажав кнопку "Ввод!".


*Определитесь, кто Вы:
робот инопланетянин человек

Внимание! Время в таблицах - всемирное. Для получения местного времени необходимо прибавить поправку, которая равна 3 ч.

Смотрите также архив погоды в соседних городах и на ближайших метеорологических станциях:

Погода в Краснослободске (Мордовия, Россия) (41 км)
Погода в Торбеево (Мордовия, Россия) (61 км)
Погода в Сасово (Рязанская область, Россия) (87 км)
Погода в Арзамасе (Нижегородская область, Россия) (89 км)
Погода в Лукоянове (Нижегородская область, Россия) (93 км)
Погода в Елатьме (Рязанская область, Россия) (100 км)
Погода в Выксе (Нижегородская область, Россия) (105 км)
Погода в Инсаре (Мордовия, Россия) (113 км)
Погода в Муроме (Владимирская область, Россия) (132 км)
Погода в Земетчино (Пензенская область, Россия) (134 км)

Пояснения к столбцам:

Ветер - указаны скорость ветра в м/с - средняя за 10 мин, порывы в срок и между сроками (в фигурных скобках) и направление, откуда дует ветер: С - северный, СВ - северо-восточный, В - восточный, ЮВ - юго-восточный, Ю - южный, ЮЗ - юго-западный, З - западный, СЗ - северо-западный.
Видимость - горизонтальная дальность видимости в метрах или километрах. При видимости от 1 до 10 км при отсутствии осадков обычно наблюдается дымка, при ухудшении видимости до 1 км и менее - туман. В сухую погоду видимость может ухудшаться дымом, пылью или мглою.
Явления - указаны атмосферные явления, наблюдавшиеся в срок или в последний час перед сроком; фигурными скобками обозначены явления, наблюдавшиеся между сроками (за 1-3 часа до срока); квадратными скобками обозначены град или гололедные отложения с указанием их диаметра в мм.
Облачность - указаны через наклонную черту общая и нижняя облачность в баллах и высота нижней границы облаков в метрах; квадратными скобками обозначены формы облаков: Ci - перистые, Cs - перисто-слоистые, Cc - перисто-кучевые, Ac - высококучевые, As - высокослоистые, Sc - слоисто-кучевые, Ns - слоисто-дождевые, Cu - кучевые, Cb - кучево-дождевые. Подробнее классификацию облаков см. в Атласе облаков (PDF).
T - Температура воздуха - температура, измеренная на высоте 2 м над землей.
Td - Температура точки росы - температура, при понижении до которой содержащийся в воздухе водяной пар достигнет насыщения.
f - Относительная влажность воздуха - влажноcть воздуха, измеренная на высоте 2 м над землей.
Te - Эффективная температура - температура, которую ощущает одетый по сезону человек в тени. Характеристика душности погоды. При расчете учитывается влияние влажности воздуха и скорости ветра на теплоощущения человека.
Tes - Эффективная температура на солнце - температура, которую ощущает человек, с поправкой на солнечный нагрев. Характеристика знойности погоды. Зависит от высоты солнца над горизонтом, облачности и скорости ветра. Ночью, в пасмурную погоду, а также при ветре 12 м/с и более поправка равна нулю.
P - Атмосферное давление - приведенное к уровню моря атмосферное давление.
Po - Атмосферное давление - измеренное на уровне метеостанции атмосферное давление.
Tmin - Минимальная температура - минимум температуры воздуха на высоте 2 м над землей.
Tmax - Максимальная температура - максимум температуры воздуха на высоте 2 м над землей.
R - Количество осадков - Количество выпавших осадков за период времени, мм. При наведении курсора мыши на число - период времени, за который выпало указанное количество осадков.
R24 - Количество осадков - Количество выпавших осадков за 24 часа, мм.
S - Снежный покров - Высота снежного покрова, см. При наведении курсора мыши на число - состояние снежного покрова и степень покрытия местности в баллах.